Weather History for KMGJ - November, 2012

Change the Weather History Date:

Saturday, November 10, 2012

  Actual Average (KPOU) Record (KPOU)
Temperature  
Mean Temperature 43 °F 43 °F  
Max Temperature 53 °F 55 °F 69 °F (1964)
Min Temperature 33 °F 32 °F 16 °F (1965)
Degree Days  
Heating Degree Days 22 22  
Month to date heating degree days 203  
Since 1 July heating degree days 779  
Cooling Degree Days 0 0  
Month to date cooling degree days 0  
Year to date cooling degree days 672  
Moisture  
Dew Point 38 °F    
Average Humidity 77    
Maximum Humidity 89    
Minimum Humidity 59    
Precipitation  
Precipitation 0.00 in 0.11 in 1.64 in (1990)
Month to date precipitation 1.15  
Year to date precipitation 40.68  
Sea Level Pressure  
Sea Level Pressure 30.30 in    
Wind  
Wind Speed 4 mph (SW)    
Max Wind Speed 10 mph    
Max Gust Speed -    
Visibility 9 miles    
Events Rain    
T = Trace of Precipitation, MM = Missing Value Source: NWS Daily Summary

Daily Weather History Graph

Daily Weather History Graph

Search for Another Location

Airport or City:

Trip Planner

Search our weather history database for the weather conditions in past years. The results will help you decide how hot, cold, wet, or windy it might be!

Date:

Astronomy

Nov. 10, 2012 Rise Set
Actual Time 6:40 AM EST 4:41 PM EST
Civil Twilight 6:10 AM EST 5:10 PM EST
Nautical Twilight 5:37 AM EST 5:43 PM EST
Astronomical Twilight 5:04 AM EST 6:16 PM EST
Moon 2:39 AM EST (11/10) 2:28 PM EST (11/10)
Length of Visible Light 10h 59m
Length of Day
10h 01m
Waning Crescent, 14% of the Moon is Illuminated
Nov 10
Waning Crescent
Nov 13
New
Nov 20
First Quarter
Nov 28
Full
Dec 6
Last Quarter

Hourly Weather History & Observations

Time (EST) Temp. Windchill Dew Point Humidity Pressure Visibility Wind Dir Wind Speed Gust Speed Precip Events Conditions
12:54 AM 33.1 °F 27.7 °F 30.0 °F 89% 30.19 in 10.0 mi WSW 5.8 mph - N/A   Clear
1:54 AM 37.9 °F 32.7 °F 32.0 °F 79% 30.19 in 10.0 mi WSW 6.9 mph - N/A   Clear
2:54 AM 37.9 °F 32.1 °F 32.0 °F 79% 30.20 in 10.0 mi West 8.1 mph - N/A   Clear
3:54 AM 39.9 °F 33.4 °F 33.1 °F 77% 30.22 in 10.0 mi West 10.4 mph - N/A   Clear
4:54 AM 37.9 °F 33.5 °F 33.1 °F 83% 30.23 in 10.0 mi SSW 5.8 mph - N/A   Partly Cloudy
5:54 AM 39.0 °F 35.7 °F 34.0 °F 82% 30.25 in 10.0 mi South 4.6 mph - N/A   Overcast
6:54 AM 39.9 °F - 36.0 °F 86% 30.29 in 8.0 mi Calm Calm - 0.00 in Rain Light Rain
7:54 AM 41.0 °F - 37.9 °F 89% 30.30 in 5.0 mi Calm Calm - 0.00 in   Mostly Cloudy
8:54 AM 43.0 °F 40.3 °F 39.0 °F 86% 30.30 in 6.0 mi South 4.6 mph - 0.00 in   Overcast
9:54 AM 46.0 °F 44.8 °F 39.9 °F 79% 30.31 in 6.0 mi SSW 3.5 mph - N/A   Haze
10:54 AM 48.0 °F - 39.9 °F 74% 30.31 in 7.0 mi Calm Calm - N/A   Overcast
11:54 AM 50.0 °F - 39.0 °F 66% 30.30 in 8.0 mi Calm Calm - N/A   Overcast
12:54 PM 51.1 °F - 39.0 °F 63% 30.31 in 8.0 mi Calm Calm - N/A   Overcast
1:54 PM 52.0 °F - 39.0 °F 61% 30.30 in 9.0 mi Calm Calm - N/A   Overcast
2:54 PM 52.0 °F - 37.9 °F 59% 30.30 in 10.0 mi Calm Calm - N/A   Overcast
3:54 PM 53.1 °F - 39.0 °F 59% 30.32 in 10.0 mi Calm Calm - N/A   Overcast
4:54 PM 51.1 °F - 39.9 °F 66% 30.33 in 10.0 mi Calm Calm - N/A   Overcast
5:54 PM 50.0 °F - 42.1 °F 74% 30.35 in 10.0 mi Calm Calm - N/A   Overcast
6:54 PM 48.9 °F - 43.0 °F 80% 30.37 in 10.0 mi Calm Calm - N/A   Overcast
7:54 PM 48.0 °F - 42.1 °F 80% 30.38 in 10.0 mi Calm Calm - N/A   Overcast
8:54 PM 46.9 °F - 42.1 °F 83% 30.39 in 10.0 mi Calm Calm - N/A   Overcast
9:54 PM 41.0 °F - 37.9 °F 89% 30.40 in 10.0 mi Calm Calm - N/A   Clear
11:54 PM 42.1 °F - 39.0 °F 89% 30.40 in 10.0 mi Calm Calm - N/A   Overcast